This is the latest recevied weather packets stored in our database for station/object VE8SKI. If no packets are shown the sender has not sent any weather packets the latest 1 day(s).
| Time | Temp. | Humidity | Pressure | Rain* | Wind** | Luminosity | Snow |
|---|---|---|---|---|---|---|---|
| 1778112817 | 8.33° C | 44% | 1010 hPa | 0 mm | 3.58 m/s, 186° | - | - |
| 1778111317 | 8.33° C | 43% | 1009.8 hPa | 0 mm | 3.13 m/s, 110° | - | - |
| 1778110119 | 8.89° C | 42% | 1009.7 hPa | 0 mm | 4.02 m/s, 249° | - | - |
| 1778108619 | 8.33° C | 43% | 1009.5 hPa | 0 mm | 3.58 m/s, 208° | - | - |
| 1778108017 | 8.89° C | 42% | 1009.4 hPa | 0 mm | 4.02 m/s, 145° | - | - |
| 1778105918 | 8.89° C | 43% | 1009.4 hPa | 0 mm | 2.24 m/s, 204° | - | - |
| 1778105319 | 8.33° C | 43% | 1009.3 hPa | 0 mm | 4.47 m/s, 201° | - | - |
| 1778104720 | 8.89° C | 44% | 1009.4 hPa | 0 mm | 2.24 m/s, 136° | - | - |
| 1778102920 | 8.89° C | 42% | 1010 hPa | 0 mm | 2.24 m/s, 212° | - | - |
| 1778102618 | 8.89° C | 42% | 1010 hPa | 0 mm | 3.58 m/s, 173° | - | - |
| 1778101120 | 8.33° C | 43% | 1010.2 hPa | 0 mm | 2.68 m/s, 194° | - | - |
| 1778100818 | 8.89° C | 43% | 1010.4 hPa | 0 mm | 2.24 m/s, 163° | - | - |
| 1778100219 | 8.33° C | 43% | 1010.4 hPa | 0 mm | 3.13 m/s, 187° | - | - |
| 1778099620 | 7.78° C | 43% | 1010.3 hPa | 0 mm | 3.13 m/s, 253° | - | - |
| 1778099018 | 7.78° C | 42% | 1010.2 hPa | 0 mm | 3.13 m/s, 228° | - | - |
| 1778098419 | 7.78° C | 43% | 1010.3 hPa | 0 mm | 2.68 m/s, 166° | - | - |
| 1778097820 | 8.33° C | 41% | 1010.4 hPa | 0 mm | 3.13 m/s, 176° | - | - |
| 1778097218 | 8.33° C | 42% | 1010.5 hPa | 0 mm | 2.68 m/s, 169° | - | - |
| 1778096619 | 8.33° C | 41% | 1010.4 hPa | 0 mm | 4.02 m/s, 91° | - | - |
| 1778096020 | 8.33° C | 41% | 1010.4 hPa | 0 mm | 2.24 m/s, 207° | - | - |
| 1778095418 | 8.33° C | 41% | 1010.5 hPa | 0 mm | 2.68 m/s, 149° | - | - |
| 1778094819 | 7.78° C | 41% | 1010.6 hPa | 0 mm | 3.58 m/s, 183° | - | - |
| 1778094220 | 7.78° C | 41% | 1010.5 hPa | 0 mm | 3.58 m/s, 194° | - | - |
| 1778093618 | 7.78° C | 40% | 1010.6 hPa | 0 mm | 3.58 m/s, 210° | - | - |
| 1778091818 | 7.78° C | 42% | 1010.8 hPa | 0 mm | 3.13 m/s, 229° | - | - |
* Rain latest hour (hover to see other rain measurements)
** Current wind speed in m/s (hover to see current wind gust speed)